Tracking 29777 objects as of 4-Oct-2024
HD Live streaming from Space Station
objects crossing your sky now

GB 2

Track GB 2 now!
10-day predictions
GB 2 is classified as:


NORAD ID: 14144
Int'l Code: 1983-056D
Perigee: 417.2 km
Apogee: 1,588.3 km
Inclination: 63.3 °
Period: 105.0 minutes
Semi major axis: 7373 km
RCS: Unknown
Launch date: June 9, 1983
Source: United States (US)
Launch site: AIR FORCE WESTERN TEST RANGE (AFWTR)
Your satellite tracking list
Your tracking list is empty




NASA's NSSDC Master Catalog

Two Line Element Set (TLE):
1 14144U 83056D   24278.05128881  .00017038  00000-0  16833-2 0  9994
2 14144  63.3059 163.1678 0794144 121.2788 246.8513 13.71105914270495
Source of the keplerian elements: McCants